Regional Weather Roundup
Issued by NWS

Home | Current Version | Previous Version | Text Only | Print | Product List | Glossary On
Versions: 1 2 3 4 5 6 7 8 9 10 11 12 13 14 15 16 17 18 19 20 21 22 23 24 25 26 27 28 29 30 31 32 33 34 35 36 37 38 39 40 41 42 43 44 45 46 47 48 49 50
000
ASUS43 KDTX 201610
RWRMI
MICHIGAN HOURLY REGIONAL WEATHER ROUNDUP
NATIONAL WEATHER SERVICE DETROIT/PONTIAC MI
1100 AM EST THU NOV 20 2014

NOTE: "FAIR" INDICATES FEW OR NO CLOUDS BELOW 12,000 FEET WITH NO
SIGNIFICANT WEATHER AND/OR OBSTRUCTION TO VISIBILITY.

MIZ047>049-052>055-059>063-066>070-074>076-081>083-201700-
SOUTHEAST LOWER MICHIGAN

CITY           SKY/WX    TMP DP  RH WIND       PRES   REMARKS
ADRIAN         CLOUDY    23  15  71 W13G24    29.97R
ALMA           PTSUNNY   22  14  69 W12       29.88R
ANN ARBOR      CLOUDY    25  13  60 W20G28    29.93R
BAD AXE        MOSUNNY   23  12  61 W20G26    29.83R
DETROIT CITY   LGT SNOW  26  15  63 SW18G28   29.92S
DETROIT        FLURRIES  25  16  68 SW22      29.95R
FLINT          LGT SNOW  24  17  74 W16G22    29.89R VSB 1
GROSSE ILE     MOSUNNY   27  16  63 SW15G23   29.94S
HILLSDALE      MOSUNNY   25  15  66 W16G23    29.93S
HOWELL         LGT SNOW  23  18  80 SW14G25   29.88S

CITY           SKY/WX    TMP DP  RH WIND       PRES   REMARKS
JACKSON        LGT SNOW  23  16  74 W17G28    29.92R
LAMBERTVILLE   SUNNY     27  16  63 SW14G26   29.99R
LANSING        LGT SNOW  24  17  74 W17       29.90S
LAPEER         NOT AVBL
MASON          LGT SNOW  24  18  76 W16G23    29.90R
MONROE         SUNNY     25  16  68 SW18G26   29.95S
MT. CLEMENS    PTSUNNY   25  18  75 SW18      29.88S BLWGSNOW
PONTIAC        LGT SNOW  23  16  74 SW15G24   29.87S
PORT HOPE        N/A     24  10  55 W17G28    29.80R
PORT HURON     HVY SNOW  23  21  93 SW6       29.89R VSB 1/4
TRI CITIES     MOSUNNY   23  10  57 W23G31    29.87R
YPSILANTI      CLOUDY    27  15  61 SW15      29.94S
$$
MIZ043>046-050>051-056>058-064>065-071>073-077>080-201700-
SOUTHWEST LOWER MICHIGAN

CITY           SKY/WX    TMP DP  RH WIND       PRES   REMARKS
BATTLE CREEK   LGT SNOW  26  17  68 W21G26    29.93S
BENTON HARBOR  CLOUDY    24  13  62 W21G33    30.01R
BIG RAPIDS     CLOUDY    21  13  73 W12G25    29.85R HAZE
COLDWATER      PTSUNNY   24  17  74 SW16G24   29.96S
HOLLAND        LGT SNOW  25  14  63 W23G31    29.95R
GRAND RAPIDS   LGT SNOW  23  17  78 W17G29    29.91S VSB 1
KALAMAZOO      LGT SNOW  24  14  65 W18G28    29.95S VSB 1
MARSHALL       LGT SNOW  22  18  84 W13       29.93R
MUSKEGON       LGT SNOW  23  16  74 W21G28    29.93R VSB 3/4
$$
MIZ016>042-201700-
NORTHERN LOWER MICHIGAN

CITY           SKY/WX    TMP DP  RH WIND       PRES   REMARKS
ALPENA         MOSUNNY   21  13  71 W9G17     29.75R
BEAVER ISLAND  MOSUNNY   22  12  64 W15G25    29.78R
BELLAIRE       LGT SNOW  21  16  81 W5        29.81R
CADILLAC       LGT SNOW  17  12  80 W12       29.79R
CHARLEVOIX     CLOUDY    21   9  58 W22G30    29.81R
FRANKFORT      LGT SNOW  19  11  69 NW15G23   29.86R
GAYLORD        CLOUDY    18   7  62 W9        29.72R
GRAYLING       SNOW      18  14  84 W12G17    29.77R VSB 1/2
HARBOR SPRINGS CLOUDY    21   9  59 W14G24    29.76R
HOUGHTON LAKE  MOSUNNY   19  10  68 W17G28    29.79R
MANISTEE       CLOUDY    19   7  58 NW18G26   29.88R
OSCODA         SUNNY     22  10  60 W23       29.78R
PELLSTON       PTSUNNY   20   9  62 W17G26    29.75R
TRAVERSE CITY  LGT SNOW  19  12  74 W16G23    29.83R BLWGSNOW
$$
MIZ007>008-015-201700-
EASTERN UPPER MICHIGAN

CITY           SKY/WX    TMP DP  RH WIND       PRES   REMARKS
KINROSS        PTSUNNY   19  14  79 W15G23    29.66S
MACKINAC ISLAN PTSUNNY   22  15  71 W23G35    29.71R
NEWBERRY       MOSUNNY   17  12  80 W16G24    29.70R
S. S. MARIE    HVY SNOW  20  17  88 E5        29.65S VSB<1/4
$$
MIZ004>006-011>014-085-201700-
CENTRAL UPPER MICHIGAN

CITY           SKY/WX    TMP DP  RH WIND       PRES   REMARKS
MANISTIQUE     SUNNY     18   7  64 W16G22    29.79R
ESCANABA       SUNNY     16   5  62 W17       29.84R WCI   0
MENOMINEE      SUNNY     16   3  57 NW13G20   29.89R
SAWYER-GWINN   LGT SNOW  14   7  73 W8        29.79R
$$
MIZ001>003-009>011-084-201700-
WESTERN UPPER MICHIGAN

CITY           SKY/WX    TMP DP  RH WIND       PRES   REMARKS
IRON MOUNTAIN  PTSUNNY   13   1  59 W14       29.83R WCI  -2
HOUGHTON       MIX PCPN  12   1  61 NW14      29.81R WCI  -3
COPPER HARBOR    N/A     18   9  68 N17       29.83R
IRONWOOD       CLOUDY     9   7  92 W13       29.85R VSB 1/2 WCI  -7
$$

ABBREVIATIONS USED IN REMARKS
   TC - TEMPERATURE IN CELSIUS
  WCI - WIND CHILL INDEX
   HX - HEAT INDEX
  VSB - VISIBILITY



USA.gov is the U.S. government's official web portal to all federal, state and local government web resources and services.